EHI
0 0 0 0 0 0 0 0 0 0 0 0 0 0 0 0 0 0 1 1 1 1 3 6 7 6 4 3 2 2 2 2 1 0 0 0 0 0 0 0 0 0 0 0
0 0 0 0 0 0 0 0 0 0 0 0 0 0 0 0 0 0 1 2 1 1 2 5 5 4 3 3 2 1 1 1 0 0 0 0 0 0 0 0 0 0 0 0
0 0 0 0 0 0 0 0 0 0 0 0 0 0 0 0 0 0 1 1 1 0 1 2 3 3 3 3 2 1 0 0 0 0 0 0 0 0 0 0 0 0 0 0
0 0 0 0 0 0 0 0 0 0 0 0 0 0 0 0 0 0 0 0 0 0 0 2 3 3 3 3 2 1 0 0 0 0 0 0 0 0 0 0 0 0 0 0
0 0 0 0 0 0 0 0 0 0 0 0 0 0 0 0 0 0 0 0 0 0 0 1 3 3 3 2 1 1 0 0 0 0 0 0 0 0 0 0 0 0 0 0
0 0 0 0 0 0 0 0 0 0 0 0 0 0 0 0 0 0 0 0 0 0 0 1 2 3 3 1 0 0 0 0 0 0 0 0 0 0 0 0 0 0 0 0
0 0 0 0 0 0 0 0 0 0 0 0 0 0 0 0 0 0 0 0 0 0 0 0 1 4 4 2 0 0 0 0 0 0 0 0 0 0 0 0 0 0 0 0
0 0 0 0 0 0 0 0 0 0 0 0 0 0 0 0 0 0 0 0 0 0 0 0 1 4 5 3 1 0 0 0 0 0 0 0 0 0 0 0 0 0 0 0
0 0 0 0 0 0 0 0 0 0 0 0 0 0 0 0 0 0 0 0 0 0 0 0 0 2 4 4 2 1 0 0 0 0 0 0 0 0 0 0 0 0 0 0
0 0 0 0 0 0 0 0 0 0 0 0 0 0 0 0 0 0 0 0 0 0 0 0 0 1 3 4 3 1 0 0 0 0 0 0 0 0 0 0 0 0 0 0
0 0 0 0 0 0 0 0 0 0 0 0 0 0 0 0 0 0 0 0 0 0 0 0 0 1 3 4 3 2 1 0 0 0 0 0 0 0 0 0 0 0 0 0
0 0 0 0 0 0 0 0 0 0 0 0 0 0 0 0 0 0 0 0 0 0 0 0 0 1 3 3 3 2 1 0 0 0 0 0 0 0 0 0 0 0 0 0
0 0 0 0 0 0 0 0 0 0 0 0 0 0 0 0 0 0 0 0 0 0 0 0 1 2 3 3 3 2 1 0 0 0 0 0 0 0 0 0 0 0 0 0
0 0 0 0 0 0 0 0 0 0 0 0 0 0 0 0 0 0 0 0 0 0 0 0 1 2 3 3 3 1 0 0 0 0 0 0 0 0 0 0 0 0 0 0
0 0 0 0 0 0 0 0 0 0 0 0 0 0 0 0 0 0 0 0 0 0 0 0 1 2 3 3 2 1 0 0 0 0 0 0 0 0 0 0 0 0 0 0
0 0 0 0 0 0 0 0 0 0 0 0 0 0 0 0 0 0 0 0 0 0 0 0 1 1 2 2 1 0 0 0 0 0 0 0 0 0 0 0 0 0 0 0
0 0 0 0 0 0 0 0 0 0 0 0 0 0 0 0 0 0 0 0 0 0 0 0 0 0 1 1 1 0 0 0 0 0 0 0 0 0 0 0 0 0 0 0
0 0 0 0 0 0 0 0 0 0 0 0 0 0 0 0 0 0 0 0 0 0 0 0 0 0 0 0 0 0 0 0 0 0 0 0 0 0 0 0 0 0 0 0
0 0 0 0 0 0 0 0 0 0 0 0 0 0 0 0 0 0 0 0 0 0 0 0 0 0 0 0 0 0 0 0 0 0 0 0 0 0 0 0 0 0 0 0
0 0 0 0 0 0 0 0 0 0 0 0 0 0 0 0 0 0 0 0 0 0 0 0 0 0 0 0 0 0 0 0 0 0 0 0 0 0 0 0 0 0 0 0
0 0 0 0 0 0 0 0 0 0 0 0 0 0 0 0 0 0 0 0 0 0 0 0 0 0 0 0 0 0 0 0 0 0 0 0 0 0 0 0 0 0 0 0
0 0 0 0 0 0 0 0 0 0 0 0 0 0 0 0 0 0 0 0 0 0 0 0 0 0 0 0 0 0 0 0 0 0 0 0 0 0 0 0 0 0 0 0
0 0 0 0 0 0 0 0 0 0 0 0 0 0 0 0 0 0 0 0 0 0 0 0 0 0 0 0 0 0 0 0 0 0 0 0 0 0 0 0 0 0 0 0
0 0 0 0 0 0 0 0 0 0 0 0 0 0 0 0 0 0 0 0 0 0 0 0 0 0 0 0 0 0 0 0 0 0 0 0 0 0 0 0 0 0 0 0
0 0 0 0 0 0 0 0 0 0 0 0 0 0 0 0 0 0 0 0 0 0 0 0 0 0 0 0 0 0 0 0 0 0 0 0 0 0 0 0 0 0 0 0
0 0 0 0 0 0 0 0 0 0 0 0 0 0 0 0 0 0 0 0 0 0 0 0 0 0 0 0 0 0 0 0 0 0 0 0 0 0 0 0 0 0 0 0
Wind_Speed
3 3 1 3 4 4 3 3 5 6 4 3 5 8 9 6 3 3 3 3 3 3 3 2 1 1 2 2 3 3 3 3 3 3 2 2 2 2 2 1 2 3 3 3
3 2 4 2 2 2 3 4 6 6 4 2 5 9 8 5 4 4 4 4 4 3 3 2 2 1 2 2 3 4 4 4 3 2 2 2 2 1 1 1 1 2 2 2
2 3 2 1 1 2 4 5 5 5 6 2 4 7 5 3 3 3 4 4 3 3 3 2 2 1 1 1 2 3 4 3 3 3 3 2 2 1 1 0 1 1 2 2
1 3 1 1 2 3 5 4 4 5 3 4 1 5 5 3 3 4 4 4 3 3 2 2 2 2 1 2 2 2 3 3 3 3 4 4 3 3 2 1 1 1 2 2
2 2 1 2 4 3 4 3 3 3 3 4 3 3 7 2 4 6 5 4 3 3 2 2 2 2 2 1 1 1 2 2 3 3 4 4 3 1 1 2 2 1 1 2
3 2 2 3 2 2 2 2 2 1 0 4 5 4 7 4 5 6 5 4 3 2 2 2 2 2 1 1 0 0 1 2 2 3 4 4 4 3 3 2 2 1 1 1
5 3 2 1 2 3 2 2 3 4 2 5 2 3 8 5 4 4 5 4 3 2 2 2 2 2 2 1 0 0 0 0 1 2 3 4 4 5 5 4 3 3 2 1
3 5 3 1 1 1 1 3 3 3 4 4 2 5 7 3 3 3 3 2 2 1 2 3 3 3 2 2 1 0 0 1 1 2 2 3 3 3 2 3 2 3 2 2
1 5 3 2 1 2 1 2 2 2 1 3 5 6 8 3 4 4 3 2 3 3 3 3 3 3 2 2 2 2 2 2 1 1 1 2 3 3 3 2 2 1 1 1
3 4 4 3 1 1 2 2 2 2 1 4 5 5 5 5 5 4 4 4 4 3 3 3 3 2 2 2 1 1 1 2 2 1 1 1 2 3 3 3 2 2 2 2
1 1 5 2 1 2 1 1 1 1 2 2 4 7 3 4 4 4 5 5 4 4 4 3 3 1 1 1 1 1 1 1 1 1 0 0 1 2 2 3 3 2 2 3
1 2 3 5 3 2 2 3 3 2 3 2 3 9 2 2 3 4 5 5 4 4 4 3 2 1 1 1 1 1 1 1 1 0 0 1 1 1 2 2 2 2 2 3
2 2 3 5 3 2 1 2 2 1 2 3 4 9 3 4 5 5 5 5 5 5 4 3 2 2 1 1 2 2 2 2 1 0 0 0 0 1 1 2 2 2 2 2
3 3 4 6 5 2 4 3 2 3 3 4 8 10 9 8 8 7 6 5 4 4 4 2 2 2 2 2 2 2 2 2 2 2 1 0 1 1 1 1 1 2 2 2
3 2 3 6 5 3 4 5 4 6 6 7 8 9 11 8 7 6 5 4 4 5 4 2 2 2 3 3 3 3 3 3 3 3 2 2 1 0 1 1 1 1 1 2
2 1 1 4 3 3 5 7 7 8 6 8 9 11 8 6 4 5 5 4 4 5 4 3 2 3 3 3 3 3 3 3 3 2 3 2 2 1 1 1 1 1 1 1
1 2 0 4 5 4 7 7 7 6 6 6 9 10 5 5 5 5 5 4 4 3 3 3 2 2 3 3 2 3 3 3 3 3 3 3 2 2 1 1 1 1 1 1
4 3 1 2 4 5 7 1 4 6 7 7 7 6 5 5 5 4 3 3 3 2 2 2 2 2 2 2 2 2 2 3 3 3 3 3 2 2 1 1 1 1 1 1
3 5 2 1 2 9 7 2 2 4 7 5 8 8 6 5 4 4 3 2 1 2 2 2 2 1 2 2 2 2 3 3 3 3 3 3 2 1 1 1 1 1 1 1
2 3 3 2 2 7 6 1 1 1 6 4 4 6 5 2 3 5 3 3 2 3 2 2 2 2 2 3 2 2 3 3 3 3 3 3 2 1 1 1 1 1 1 0
1 1 3 4 5 10 5 1 1 2 7 4 3 4 3 3 5 4 3 2 2 2 2 2 2 2 2 2 2 2 2 3 3 3 3 3 2 1 1 1 1 1 1 1
7 5 5 4 5 10 3 4 5 7 3 2 3 3 3 5 4 3 2 2 2 2 2 2 2 3 3 3 2 2 3 3 2 3 3 3 2 1 1 1 1 1 1 1
7 8 6 9 9 4 4 6 5 2 4 4 3 4 3 4 4 3 2 2 2 1 1 1 1 2 3 3 1 1 3 3 2 2 2 2 2 2 1 1 1 0 0 0
5 3 3 6 9 7 7 7 6 5 5 5 4 3 3 4 4 3 3 2 2 1 1 1 1 2 3 3 2 1 2 2 2 2 2 2 2 1 1 1 0 0 1 1
6 5 4 7 8 6 6 8 8 6 5 5 4 3 3 4 4 3 3 2 2 2 1 1 1 1 3 3 3 3 2 2 2 2 2 2 1 1 1 1 0 1 1 2
7 9 8 9 7 5 6 5 5 5 6 6 4 4 3 4 4 3 3 2 1 1 1 1 1 1 2 2 3 3 2 1 1 2 2 1 1 1 0 0 1 2 1 1
Wind_Direction
26 67 239 243 221 221 208 235 272 277 282 289 263 277 288 292 287 271 267 272 268 265 268 267 256 227 175 156 165 165 153 156 153 154 156 164 181 186 175 187 190 180 170 173
36 301 258 240 243 241 241 257 272 287 295 280 274 276 275 268 263 254 255 272 265 288 306 297 292 247 184 184 179 174 172 171 170 171 165 173 156 171 170 171 177 179 168 171
181 268 275 212 265 260 259 242 254 275 314 307 283 284 267 260 256 275 272 270 257 243 261 289 290 280 223 205 208 189 182 174 168 156 137 116 101 101 105 149 188 189 179 172
270 285 315 278 259 227 267 255 256 276 304 295 281 282 275 268 275 283 286 273 254 258 265 284 309 316 290 256 251 198 173 159 159 156 148 148 163 181 197 177 201 188 184 181
271 281 281 259 262 228 245 277 270 272 251 282 269 246 277 287 269 273 274 270 258 258 258 276 289 279 272 266 252 188 157 159 159 161 167 167 168 169 148 130 141 182 180 184
271 265 226 243 276 248 258 334 328 319 45 269 247 219 273 249 247 270 273 278 272 277 277 275 278 287 291 315 339 134 150 171 172 174 175 175 176 158 144 158 177 181 196 199
333 318 311 300 356 352 36 53 2 348 334 258 258 233 255 270 261 256 261 271 270 262 270 279 282 290 291 296 312 54 124 212 203 190 188 184 183 178 178 185 192 191 194 221
349 307 304 335 184 236 242 162 177 232 248 285 292 248 262 283 286 285 263 268 285 289 286 285 269 253 256 256 234 176 197 253 254 224 215 190 179 183 185 192 192 201 205 207
212 278 309 300 279 160 172 198 202 158 283 278 273 285 297 310 316 324 316 302 294 286 284 283 284 273 256 246 237 217 220 236 247 250 227 184 181 181 178 183 183 189 193 186
176 270 290 299 14 1 173 155 98 151 229 275 284 275 274 297 297 312 311 308 300 297 292 294 286 285 288 273 262 247 220 228 248 251 228 200 188 185 180 171 181 188 189 176
169 218 303 345 202 218 83 95 132 168 185 199 278 273 253 257 275 286 296 302 306 301 294 297 291 283 303 326 322 311 299 281 275 271 297 207 193 176 170 171 179 185 182 178
160 138 273 262 251 216 186 190 174 185 241 215 244 274 300 283 315 309 302 308 312 311 306 307 301 323 347 355 354 348 342 324 289 236 221 236 196 163 165 172 180 179 185 185
145 114 348 340 341 358 274 227 209 161 142 190 217 268 324 345 337 326 313 313 316 323 323 330 353 3 358 359 355 355 358 338 333 4 142 147 188 187 195 189 180 173 184 185
119 141 189 221 248 248 272 265 200 161 198 235 235 264 297 314 315 317 315 314 318 323 323 333 353 358 359 7 11 5 358 0 5 16 17 312 258 219 220 187 170 176 181 184
107 199 244 261 272 256 253 254 227 213 218 226 255 260 276 291 295 301 306 312 327 331 329 341 352 359 4 11 10 12 6 7 10 14 11 352 338 61 90 119 149 158 173 180
80 185 293 290 292 270 269 260 241 237 240 251 269 273 276 291 304 314 316 312 314 317 330 346 1 5 2 1 358 3 8 7 17 15 4 1 15 46 67 87 109 122 133 148
133 132 51 284 316 334 277 243 216 228 228 219 239 255 286 301 302 296 297 295 282 292 322 340 347 355 352 346 352 358 359 6 20 18 11 9 10 19 35 78 92 100 111 130
147 133 154 304 11 255 250 196 208 235 251 229 246 269 278 276 290 292 289 285 285 292 311 329 341 352 354 354 354 359 12 18 17 18 15 11 12 16 29 63 74 74 96 114
158 147 140 142 270 277 288 249 192 218 270 236 243 268 287 308 318 311 310 297 267 297 312 315 323 340 354 353 352 5 14 17 16 12 4 359 5 10 23 55 57 48 68 88
89 111 130 147 220 252 262 266 235 125 284 265 234 258 275 336 317 293 322 323 324 332 344 349 356 9 7 354 5 22 9 12 1 350 343 345 356 0 7 29 56 48 57 62
141 126 174 198 236 263 258 247 125 171 262 291 243 248 244 224 236 273 304 314 327 338 349 2 8 3 346 354 19 16 2 351 341 345 350 355 358 355 20 50 66 74 66 62
185 183 196 176 218 256 201 143 192 231 282 283 265 252 242 251 271 292 307 318 328 341 356 6 15 354 347 1 25 9 346 335 347 354 355 356 360 5 34 71 62 68 96 85
205 197 193 199 221 251 184 211 238 254 264 265 259 262 253 261 271 284 293 296 302 307 327 347 11 353 347 354 14 1 326 336 353 2 356 356 5 28 41 84 94 67 89 130
240 194 206 253 262 255 249 256 261 251 252 262 258 257 241 246 260 267 273 281 288 295 304 327 13 351 336 343 351 332 326 339 356 358 349 351 9 23 30 21 66 183 203 213
220 178 214 255 271 288 265 244 248 254 258 264 273 259 239 239 253 249 251 261 262 285 304 331 321 309 312 331 337 333 336 358 2 346 339 346 358 5 18 6 322 267 247 235
200 190 196 233 233 222 260 266 240 237 248 249 251 268 263 233 240 241 238 243 249 276 299 314 304 297 307 325 326 326 330 339 346 336 333 335 344 339 356 15 14 6 343 324